Regional Weather Roundup
Issued by NWS

Home | Current Version | Previous Version | Graphics & Text | Print | Product List | Glossary On
Versions: 1 2 3 4 5 6 7 8 9 10 11 12 13 14 15 16 17 18 19 20 21 22 23 24 25 26 27 28 29 30 31 32 33 34 35 36 37 38 39 40 41 42 43 44 45 46 47 48 49 50
000
ASUS43 KFSD 010410
RWRSD

WEATHER ROUNDUP FOR SOUTH DAKOTA
NATIONAL WEATHER SERVICE SIOUX FALLS SD
1100 PM CDT MON AUG 31 2015

NOTE: "FAIR" INDICATES FEW OR NO CLOUDS BELOW 12,000 FEET WITH NO
SIGNIFICANT WEATHER AND/OR OBSTRUCTIONS TO VISIBILITY.


SDZ001>005-009-010-012>017-010500-
NORTHWEST AND NORTH CENTRAL SOUTH DAKOTA

CITY           SKY/WX    TMP DP  RH WIND       PRES   REMARKS
BUFFALO          N/A     62  53  72 SE14      29.89S
FAITH            N/A     65  53  65 S9        29.95R
MOBRIDGE       MOCLDY    59  55  87 CALM      29.90S
$$

SDZ012>016-024>037-041>051-057-063-072>074-010500-
SOUTHWEST AND SOUTH CENTRAL SOUTH DAKOTA

CITY           SKY/WX    TMP DP  RH WIND       PRES   REMARKS
RAPID CTY ARPT CLOUDY    64  58  80 NE3       29.95F
PIERRE         MOCLDY    63  60  90 N3        29.91S
CUSTER         CLOUDY    59  52  77 CALM      30.09S
ELLSWORTH AFB  CLOUDY    66  59  77 S7        29.94F
PHILIP         MOCLDY    65  61  87 E5        29.93S
PINE RIDGE     CLOUDY    69  57  65 S6        29.97S
WINNER         FAIR      71  62  73 NE5       29.93S
$$

SDZ004>011-016>023-039-040-010500-
NORTHEAST SOUTH DAKOTA

CITY           SKY/WX    TMP DP  RH WIND       PRES   REMARKS
ABERDEEN       MOCLDY    63  61  93 W3        29.90S
WATERTOWN      PTCLDY    69  66  90 N3        29.91R
BROOKINGS      PTCLDY    72  68  88 S7        29.92S
SISSETON         N/A     65  63  93 N7        29.88S
$$

SDZ017-020-022-023-036>040-048>070-010500-
SOUTHEAST SOUTH DAKOTA

CITY           SKY/WX    TMP DP  RH WIND       PRES   REMARKS
SIOUX FALLS    CLOUDY    74  69  85 S12       29.90S
HURON          MOCLDY    65  64  97 NW7       29.89S
CHAMBERLAIN    MOCLDY    69  64  82 NE3       29.92R
MITCHELL       PTCLDY    69  67  93 NW5       29.90R
YANKTON        CLEAR     73  68  83 SE3       29.89R
$$

ABBREVIATIONS USED IN REMARKS
   TC - TEMPERATURE IN CELSIUS
  WCI - WIND CHILL INDEX
   HX - HEAT INDEX
  VSB - VISIBILITY



USA.gov is the U.S. government's official web portal to all federal, state and local government web resources and services.